, AK

(GMT )
Valdez Airport

Weather History for PAVD - December, 2012

Change the Weather History Date:

Sunday, December 2, 2012

  Actual Average Record
Temperature  
Mean Temperature 22 °F -  
Max Temperature 28 °F 29 °F 53 °F (1966)
Min Temperature 17 °F 20 °F -3 °F (1964)
Degree Days  
Heating Degree Days 42    
Moisture  
Dew Point -8 °F    
Average Humidity 23    
Maximum Humidity 32    
Minimum Humidity 19    
Precipitation  
Precipitation 0.00 in - - ()
Sea Level Pressure  
Sea Level Pressure 29.28 in    
Wind  
Wind Speed 21 mph (ENE)    
Max Wind Speed 31 mph    
Max Gust Speed 56 mph    
Visibility 10 miles    
Events      
Averages and records for this station are not official NWS values.
T = Trace of Precipitation, MM = Missing Value Source: NWS Daily Summary

Daily Weather History Graph

Daily Weather History Graph

Search for Another Location

Airport or City:

Trip Planner

Search our weather history database for the weather conditions in past years. The results will help you decide how hot, cold, wet, or windy it might be!

Date:

Astronomy

Dec. 02, 2012 Rise Set
Actual Time 9:33 AM AKST 3:35 PM AKST
Civil Twilight 8:35 AM AKST 4:33 PM AKST
Nautical Twilight 7:37 AM AKST 5:31 PM AKST
Astronomical Twilight 6:44 AM AKST 6:24 PM AKST
Moon 8:09 PM AKST (12/2) 11:56 AM AKST (12/2)
Length of Visible Light 7h 58m
Length of Day
6h 01m
Waning Gibbous, 84% of the Moon is Illuminated
Dec 2
Waning Gibbous
Dec 6
Last Quarter
Dec 12
New
Dec 19
First Quarter
Dec 28
Full

Hourly Weather History & Observations

Time (AKST) Temp. Windchill Dew Point Humidity Pressure Visibility Wind Dir Wind Speed Gust Speed Precip Events Conditions
12:16 AM 28.4 °F 16.6 °F -9.4 °F 19% 29.34 in 10.0 mi ENE 16.1 mph 40.3 mph N/A   Clear
12:36 AM 28.4 °F 13.8 °F -9.4 °F 19% 29.32 in 10.0 mi East 25.3 mph 48.3 mph N/A   Clear
12:56 AM 26.6 °F 11.7 °F -11.2 °F 19% 29.33 in 10.0 mi East 24.2 mph 33.4 mph N/A   Clear
1:16 AM 28.4 °F 14.4 °F -9.4 °F 19% 29.33 in 10.0 mi East 23.0 mph 44.9 mph N/A   Clear
1:36 AM 28.4 °F 16.2 °F -9.4 °F 19% 29.34 in 10.0 mi NE 17.3 mph 46.0 mph N/A   Clear
1:56 AM 28.4 °F 17.5 °F -9.4 °F 19% 29.33 in 10.0 mi NE 13.8 mph 26.5 mph N/A   Clear
2:16 AM 26.6 °F 10.6 °F -9.4 °F 21% 29.32 in 10.0 mi NE 28.8 mph 34.5 mph N/A   Clear
2:36 AM 26.6 °F 11.4 °F -9.4 °F 21% 29.31 in 10.0 mi East 25.3 mph 34.5 mph N/A   Clear
3:16 AM 28.4 °F 15.1 °F -7.6 °F 21% 29.31 in 10.0 mi ENE 20.7 mph 34.5 mph N/A   Clear
3:36 AM 28.4 °F 13.5 °F -7.6 °F 21% 29.30 in 10.0 mi NNE 26.5 mph 38.0 mph N/A   Clear
3:56 AM 26.6 °F 11.7 °F -9.4 °F 21% 29.30 in 10.0 mi ENE 24.2 mph 34.5 mph N/A   Clear
4:16 AM 28.4 °F 12.7 °F -9.4 °F 19% 29.28 in 10.0 mi ENE 29.9 mph 56.4 mph N/A   Clear
4:36 AM 26.6 °F 11.7 °F -9.4 °F 21% 29.28 in 10.0 mi ENE 24.2 mph 41.4 mph N/A   Clear
4:56 AM 28.4 °F 13.5 °F -9.4 °F 19% 29.27 in 10.0 mi East 26.5 mph 41.4 mph N/A   Clear
5:16 AM 28.4 °F 13.8 °F -9.4 °F 19% 29.27 in 10.0 mi ENE 25.3 mph 40.3 mph N/A   Clear
5:36 AM 26.6 °F 11.7 °F -9.4 °F 21% 29.27 in 10.0 mi ENE 24.2 mph 48.3 mph N/A   Clear
5:56 AM 26.6 °F 11.4 °F -9.4 °F 21% 29.27 in 10.0 mi ENE 25.3 mph 46.0 mph N/A   Clear
6:16 AM 26.6 °F 12.7 °F -9.4 °F 21% 29.28 in 10.0 mi ENE 20.7 mph 33.4 mph N/A   Clear
6:36 AM 26.6 °F 10.6 °F -9.4 °F 21% 29.26 in 10.0 mi East 28.8 mph 39.1 mph N/A   Clear
6:56 AM 26.6 °F 14.7 °F -9.4 °F 21% 29.28 in 10.0 mi East 15.0 mph 26.5 mph N/A   Clear
7:16 AM 26.6 °F 13.4 °F -9.4 °F 21% 29.28 in 10.0 mi ESE 18.4 mph 34.5 mph N/A   Clear
7:36 AM 26.6 °F 10.8 °F -9.4 °F 21% 29.27 in 10.0 mi East 27.6 mph 44.9 mph N/A   Clear
7:56 AM 26.6 °F 13.4 °F -9.4 °F 21% 29.28 in 10.0 mi NE 18.4 mph 41.4 mph N/A   Clear
8:16 AM 26.6 °F 10.8 °F -9.4 °F 21% 29.27 in 10.0 mi ENE 27.6 mph 43.7 mph N/A   Clear
8:36 AM 26.6 °F 12.4 °F -9.4 °F 21% 29.27 in 10.0 mi East 21.9 mph 36.8 mph N/A   Clear
8:56 AM 26.6 °F 12.4 °F -9.4 °F 21% 29.27 in 10.0 mi East 21.9 mph 46.0 mph N/A   Clear
9:16 AM 26.6 °F 11.4 °F -9.4 °F 21% 29.26 in 10.0 mi East 25.3 mph 35.7 mph N/A   Clear
9:36 AM 26.6 °F 11.1 °F -9.4 °F 21% 29.26 in 10.0 mi ENE 26.5 mph 48.3 mph N/A   Clear
9:56 AM 26.6 °F 10.6 °F -9.4 °F 21% 29.26 in 10.0 mi ENE 28.8 mph 46.0 mph N/A   Clear
10:16 AM 26.6 °F 14.3 °F -7.6 °F 22% 29.28 in 10.0 mi ENE 16.1 mph 40.3 mph N/A   Clear
10:36 AM 26.6 °F 14.7 °F -9.4 °F 21% 29.29 in 10.0 mi ENE 15.0 mph 34.5 mph N/A   Clear
10:56 AM 26.6 °F 11.4 °F -9.4 °F 21% 29.27 in 10.0 mi East 25.3 mph 39.1 mph N/A   Clear
11:16 AM 26.6 °F 10.0 °F -9.4 °F 21% 29.26 in 10.0 mi East 31.1 mph 40.3 mph N/A   Clear
11:36 AM 26.6 °F 14.7 °F -9.4 °F 21% 29.27 in 10.0 mi ENE 15.0 mph 41.4 mph N/A   Clear
11:56 AM 26.6 °F 11.7 °F -7.6 °F 22% 29.27 in 10.0 mi East 24.2 mph 34.5 mph N/A   Clear
12:16 PM 26.6 °F 13.4 °F -7.6 °F 22% 29.28 in 10.0 mi ENE 18.4 mph 35.7 mph N/A   Clear
12:36 PM 26.6 °F 14.7 °F -7.6 °F 22% 29.28 in 10.0 mi NE 15.0 mph 29.9 mph N/A   Clear
12:56 PM 26.6 °F 12.4 °F -7.6 °F 22% 29.27 in 10.0 mi East 21.9 mph 33.4 mph N/A   Clear
1:16 PM 26.6 °F 14.3 °F -7.6 °F 22% 29.27 in 10.0 mi East 16.1 mph 32.2 mph N/A   Clear
1:36 PM 26.6 °F 10.8 °F -5.8 °F 24% 29.26 in 10.0 mi NE 27.6 mph 38.0 mph N/A   Clear
1:56 PM 26.6 °F 11.4 °F -5.8 °F 24% 29.26 in 10.0 mi NE 25.3 mph 42.6 mph N/A   Clear
2:16 PM 26.6 °F 11.7 °F -7.6 °F 22% 29.27 in 10.0 mi ENE 24.2 mph 50.6 mph N/A   Clear
2:36 PM 24.8 °F 9.3 °F -7.6 °F 24% 29.27 in 10.0 mi ENE 24.2 mph 40.3 mph N/A   Clear
2:56 PM 26.6 °F 10.6 °F -5.8 °F 24% 29.25 in 10.0 mi ENE 28.8 mph 39.1 mph N/A   Clear
3:16 PM 26.6 °F 11.4 °F -7.6 °F 22% 29.25 in 10.0 mi ENE 25.3 mph 36.8 mph N/A   Clear
3:36 PM 26.6 °F 12.0 °F -7.6 °F 22% 29.25 in 10.0 mi NNE 23.0 mph 41.4 mph N/A   Clear
3:56 PM 24.8 °F 16.1 °F -7.6 °F 24% 29.25 in 10.0 mi North 8.1 mph 33.4 mph N/A   Clear
4:16 PM 24.8 °F 10.3 °F -7.6 °F 24% 29.24 in 10.0 mi NE 20.7 mph 40.3 mph N/A   Clear
4:36 PM 24.8 °F 8.1 °F -7.6 °F 24% 29.24 in 10.0 mi East 28.8 mph 43.7 mph N/A   Clear
4:56 PM 24.8 °F 12.9 °F -7.6 °F 24% 29.26 in 10.0 mi NE 13.8 mph 47.2 mph N/A   Clear
5:16 PM 24.8 °F 11.1 °F -7.6 °F 24% 29.26 in 10.0 mi ENE 18.4 mph 28.8 mph N/A   Clear
5:36 PM 24.8 °F 9.6 °F -7.6 °F 24% 29.26 in 10.0 mi East 23.0 mph 49.5 mph N/A   Clear
5:56 PM 24.8 °F 12.9 °F -7.6 °F 24% 29.26 in 10.0 mi NE 13.8 mph 27.6 mph N/A   Clear
6:16 PM 24.8 °F 12.9 °F -7.6 °F 24% 29.27 in 10.0 mi North 13.8 mph 33.4 mph N/A   Clear
6:36 PM 24.8 °F 10.3 °F -7.6 °F 24% 29.27 in 10.0 mi NNE 20.7 mph 27.6 mph N/A   Clear
6:56 PM 23.0 °F 6.0 °F -9.4 °F 24% 29.26 in 10.0 mi NE 27.6 mph 36.8 mph N/A   Clear
7:16 PM 24.8 °F 11.5 °F -7.6 °F 24% 29.28 in 10.0 mi NE 17.3 mph 38.0 mph N/A   Clear
7:36 PM 23.0 °F 8.7 °F -9.4 °F 24% 29.27 in 10.0 mi NE 18.4 mph 27.6 mph N/A   Clear
7:56 PM 21.2 °F 5.2 °F -7.6 °F 28% 29.29 in 10.0 mi East 21.9 mph 34.5 mph N/A   Clear
8:16 PM 21.2 °F 4.9 °F -7.6 °F 28% 29.30 in 10.0 mi ENE 23.0 mph 35.7 mph N/A   Clear
8:36 PM 21.2 °F 5.6 °F -7.6 °F 28% 29.31 in 10.0 mi ENE 20.7 mph 27.6 mph N/A   Clear
8:56 PM 21.2 °F 4.9 °F -9.4 °F 26% 29.29 in 10.0 mi East 23.0 mph 40.3 mph N/A   Clear
9:16 PM 21.2 °F 6.8 °F -7.6 °F 28% 29.30 in 10.0 mi East 17.3 mph 23.0 mph N/A   Clear
9:36 PM 21.2 °F 6.4 °F -7.6 °F 28% 29.30 in 10.0 mi East 18.4 mph 29.9 mph N/A   Clear
9:56 PM 21.2 °F 12.6 °F -9.4 °F 26% 29.31 in 10.0 mi NNE 6.9 mph 27.6 mph N/A   Clear
10:16 PM 19.4 °F 12.8 °F -9.4 °F 28% 29.32 in 10.0 mi South 4.6 mph - N/A   Clear
10:36 PM 19.4 °F 12.8 °F -7.6 °F 30% 29.32 in 10.0 mi North 4.6 mph - N/A   Clear
10:56 PM 19.4 °F 11.5 °F -7.6 °F 30% 29.33 in 10.0 mi West 5.8 mph - N/A   Clear
11:16 PM 17.6 °F 10.7 °F -7.6 °F 32% 29.34 in 10.0 mi NNW 4.6 mph - N/A   Clear
11:36 PM 17.6 °F 12.3 °F -7.6 °F 32% 29.35 in 10.0 mi North 3.5 mph - N/A   Clear
11:56 PM 17.6 °F - -7.6 °F 32% 29.36 in 10.0 mi Calm Calm - N/A   Clear